Terug naar catalogus

DELTA 1 DEB

ActiefSSO
NORAD 7050·DEBRIS·🇺🇸 United States

Gelanceerd Nov 6, 1973 vanaf Vandenberg Space Force Base

Loading…

Volgende Passages (komende 24 uur)

TLE

VersSource: Space-Track

Epoch: Sep 13, 2026, 21:32 UTC

1 07050U 73086AS  26256.89772963  .00000235  00000-0  16432-2 0  9996
2 07050 101.6750 236.3752 0052645  30.8458  26.1021 12.58319796409581

Volg DELTA 1 DEB in realtime met AllMySat

Download on the App Store